Jaffrey, NH

10:54 AM EDT on September 21, 2017 (GMT -0400)
Jaffrey Airport-Silver Ranch

Weather History for KAFN - April, 2013

Change the Weather History Date:

Tuesday, April 23, 2013

  Actual Average Record
Temperature  
Mean Temperature 35 °F -  
Max Temperature 37 °F 55 °F 82 °F (2007)
Min Temperature 33 °F 32 °F 28 °F (1997)
Degree Days  
Heating Degree Days 30    
Moisture  
Dew Point 33 °F    
Average Humidity 90    
Maximum Humidity 100    
Minimum Humidity 75    
Precipitation  
Precipitation 0.00 in - - ()
Sea Level Pressure  
Sea Level Pressure 30.37 in    
Wind  
Wind Speed 3 mph (NNE)    
Max Wind Speed 8 mph    
Max Gust Speed -    
Visibility 5 miles    
Events      
Averages and records for this station are not official NWS values.
T = Trace of Precipitation, MM = Missing Value Source: NWS Daily Summary

Daily Weather History Graph

Daily Weather History Graph

Search for Another Location

Airport or City:

Trip Planner

Search our weather history database for the weather conditions in past years. The results will help you decide how hot, cold, wet, or windy it might be!

Date:

Astronomy

Apr. 23, 2013 Rise Set
Actual Time 5:53 AM EDT 7:39 PM EDT
Civil Twilight 5:23 AM EDT 8:09 PM EDT
Nautical Twilight 4:46 AM EDT 8:46 PM EDT
Astronomical Twilight 4:07 AM EDT 9:26 PM EDT
Moon 5:28 PM EDT (4/23) 4:23 AM EDT (4/23)
Length of Visible Light 14h 46m
Length of Day
13h 46m
Waxing Gibbous, 94% of the Moon is Illuminated
Apr 23
Waxing Gibbous
Apr 25
Full
May 2
Last Quarter
May 9
New
May 18
First Quarter

Hourly Weather History & Observations

Time (EDT) Temp. Windchill Dew Point Humidity Pressure Visibility Wind Dir Wind Speed Gust Speed Precip Events Conditions
12:52 AM 34.0 °F 31.0 °F 27.0 °F 75% 30.60 in 10.0 mi Variable 3.5 mph - N/A   Mostly Cloudy
1:10 AM 33.8 °F 30.8 °F 26.6 °F 75% 30.56 in 10.0 mi Variable 3.5 mph - N/A   Scattered Clouds
1:31 AM 33.8 °F - 26.6 °F 75% 30.54 in 10.0 mi Calm Calm - N/A   Mostly Cloudy
1:52 AM 33.1 °F - 27.0 °F 78% 30.58 in 10.0 mi Calm Calm - N/A   Mostly Cloudy
2:52 AM 34.0 °F - 28.0 °F 79% 30.55 in 10.0 mi Calm Calm - N/A   Overcast
4:52 AM 33.1 °F - 27.0 °F 78% 30.52 in 10.0 mi Calm Calm - N/A   Overcast
5:52 AM 33.1 °F - 27.0 °F 78% 30.52 in 10.0 mi Calm Calm - N/A   Overcast
6:52 AM 33.1 °F 30.0 °F 28.0 °F 82% 30.52 in 10.0 mi Variable 3.5 mph - N/A   Overcast
7:52 AM 33.1 °F - 28.0 °F 82% 30.52 in 10.0 mi Calm Calm - N/A   Overcast
8:13 AM 33.8 °F 30.8 °F 28.4 °F 81% 30.47 in 5.0 mi Variable 3.5 mph - N/A   Overcast
8:52 AM 33.1 °F 30.0 °F 30.9 °F 92% 30.51 in 3.0 mi Variable 3.5 mph - N/A   Overcast
8:59 AM 33.8 °F 29.6 °F 30.2 °F 87% 30.45 in 2.5 mi NE 4.6 mph - N/A   Overcast
9:14 AM 33.8 °F 30.8 °F 32.0 °F 93% 30.45 in 1.8 mi Variable 3.5 mph - N/A   Overcast
9:29 AM 33.8 °F - 32.0 °F 93% 30.44 in 2.0 mi Calm Calm - N/A   Overcast
9:48 AM 33.8 °F 27.7 °F 32.0 °F 93% 30.44 in 1.8 mi Variable 6.9 mph - 0.00 in   Overcast
9:52 AM 34.0 °F 29.8 °F 32.0 °F 92% 30.49 in 2.0 mi Variable 4.6 mph - 0.00 in   Overcast
10:31 AM 33.8 °F 29.6 °F 33.8 °F 100% 30.43 in 3.0 mi Variable 4.6 mph - N/A   Overcast
10:52 AM 35.1 °F 31.0 °F 33.1 °F 92% 30.48 in 4.0 mi Variable 4.6 mph - N/A   Overcast
11:33 AM 35.6 °F 32.8 °F 33.8 °F 93% 30.42 in 6.0 mi Variable 3.5 mph - N/A   Overcast
11:52 AM 36.0 °F 31.1 °F 34.0 °F 93% 30.47 in 5.0 mi Variable 5.8 mph - N/A   Overcast
12:52 PM 36.0 °F 31.1 °F 34.0 °F 93% 30.43 in 7.0 mi Variable 5.8 mph - N/A   Overcast
1:52 PM 37.0 °F 32.4 °F 34.0 °F 89% 30.41 in 10.0 mi Variable 5.8 mph - N/A   Overcast
2:52 PM 37.0 °F 33.3 °F 34.0 °F 89% 30.39 in 9.0 mi Variable 4.6 mph - N/A   Overcast
3:52 PM 37.0 °F 31.6 °F 35.1 °F 93% 30.36 in 8.0 mi NNE 6.9 mph - N/A   Overcast
4:48 PM 37.4 °F 32.1 °F 35.6 °F 93% 30.30 in 5.0 mi Variable 6.9 mph - N/A   Overcast
4:52 PM 37.0 °F 33.3 °F 35.1 °F 93% 30.35 in 5.0 mi Variable 4.6 mph - N/A   Overcast
5:14 PM 37.4 °F 33.8 °F 35.6 °F 93% 30.30 in 2.5 mi Variable 4.6 mph - N/A   Overcast
5:50 PM 37.4 °F 34.9 °F 35.6 °F 93% 30.28 in 3.0 mi Variable 3.5 mph - N/A   Overcast
5:52 PM 37.0 °F 33.3 °F 36.0 °F 96% 30.32 in 3.0 mi Variable 4.6 mph - N/A   Overcast
6:29 PM 37.4 °F 32.8 °F 35.6 °F 93% 30.27 in 2.5 mi NNE 5.8 mph - N/A   Overcast
6:39 PM 37.4 °F 34.9 °F 35.6 °F 93% 30.26 in 1.8 mi Variable 3.5 mph - N/A   Overcast
6:52 PM 37.0 °F 34.5 °F 36.0 °F 96% 30.31 in 2.0 mi Variable 3.5 mph - N/A   Overcast
7:30 PM 37.4 °F 34.9 °F 35.6 °F 93% 30.25 in 3.0 mi Variable 3.5 mph - N/A   Overcast
7:52 PM 37.0 °F 32.4 °F 36.0 °F 96% 30.28 in 4.0 mi North 5.8 mph - N/A   Overcast
8:41 PM 37.4 °F 32.8 °F 35.6 °F 93% 30.23 in 2.5 mi Variable 5.8 mph - N/A   Overcast
8:52 PM 37.0 °F 33.3 °F 36.0 °F 96% 30.28 in 2.5 mi Variable 4.6 mph - N/A   Overcast
9:05 PM 37.4 °F 34.9 °F 35.6 °F 93% 30.21 in 1.8 mi Variable 3.5 mph - N/A   Overcast
9:23 PM 37.4 °F 32.1 °F 35.6 °F 93% 30.21 in 1.2 mi Variable 6.9 mph - N/A   Overcast
9:47 PM 37.4 °F 33.8 °F 35.6 °F 93% 30.21 in 1.5 mi Variable 4.6 mph - N/A   Overcast
9:52 PM 37.0 °F 33.3 °F 36.0 °F 96% 30.26 in 1.5 mi Variable 4.6 mph - N/A   Overcast
10:37 PM 37.4 °F 31.4 °F 35.6 °F 93% 30.20 in 2.5 mi NNE 8.1 mph - 0.00 in   Overcast
10:52 PM 37.0 °F 32.4 °F 36.0 °F 96% 30.23 in 1.8 mi North 5.8 mph - 0.00 in   Overcast
10:59 PM 37.4 °F 33.8 °F 35.6 °F 93% 30.17 in 2.5 mi Variable 4.6 mph - N/A   Overcast
11:07 PM 37.4 °F 32.8 °F 35.6 °F 93% 30.17 in 3.0 mi Variable 5.8 mph - N/A   Overcast
11:44 PM 37.4 °F 31.4 °F 35.6 °F 93% 30.14 in 2.5 mi North 8.1 mph - N/A   Overcast
11:52 PM 37.0 °F 33.3 °F 36.0 °F 96% 30.17 in 3.0 mi Variable 4.6 mph - N/A   Overcast